Regional Weather Roundup
Issued by NWS

Home | Current Version | Previous Version | Graphics & Text | Print | Product List | Glossary On
Versions: 1 2 3 4 5 6 7 8 9 10 11 12 13 14 15 16 17 18 19 20 21 22 23 24 25 26 27 28 29 30 31 32 33 34 35 36 37 38 39 40 41 42 43 44 45 46 47 48 49 50
000
ASUS43 KFSD 281710
RWRSD

WEATHER ROUNDUP FOR SOUTH DAKOTA
NATIONAL WEATHER SERVICE SIOUX FALLS SD
1200 PM CDT THU AUG 28 2014

NOTE: "FAIR" INDICATES FEW OR NO CLOUDS BELOW 12,000 FEET WITH NO
SIGNIFICANT WEATHER AND/OR OBSTRUCTIONS TO VISIBILITY.


SDZ001>005-009-010-012>017-281800-
NORTHWEST AND NORTH CENTRAL SOUTH DAKOTA

CITY           SKY/WX    TMP DP  RH WIND       PRES   REMARKS
BUFFALO          N/A     76  59  55 VRB3      29.92S
FAITH            N/A     69  63  81 NW3       29.97S
MOBRIDGE       LGT RAIN  67  67 100 S3        29.93R
$$

SDZ012>016-024>037-041>051-057-063-072>074-281800-
SOUTHWEST AND SOUTH CENTRAL SOUTH DAKOTA

CITY           SKY/WX    TMP DP  RH WIND       PRES   REMARKS
RAPID CTY ARPT CLOUDY    70  60  70 VRB3      30.01S
PIERRE         CLOUDY    70  67  90 N6        29.90F
CUSTER         CLOUDY    65  53  65 CALM      30.13R
ELLSWORTH AFB  CLOUDY    70  60  70 N5        30.01S
PHILIP         CLOUDY    73  63  70 N3        29.94F
PINE RIDGE     CLOUDY    69  63  81 N9        30.02S
WINNER         CLOUDY    73  67  81 N3        29.91S
$$

SDZ004>011-016>023-039-040-281800-
NORTHEAST SOUTH DAKOTA

CITY           SKY/WX    TMP DP  RH WIND       PRES   REMARKS
ABERDEEN       CLOUDY    69  66  90 SE7       29.93F
WATERTOWN      LGT RAIN  66  64  93 SE6       29.96S
SISSETON         N/A     66  64  93 S8        29.96F
$$

SDZ017-020-022-023-036>040-048>070-281800-
SOUTHEAST SOUTH DAKOTA

CITY           SKY/WX    TMP DP  RH WIND       PRES   REMARKS
SIOUX FALLS    DRIZZLE   69  67  93 SE12      29.94F
HURON          CLOUDY    69  67  93 SE8       29.91S
CHAMBERLAIN    CLOUDY    72  69  90 SE8       29.89F
MITCHELL       CLOUDY    70  68  93 SE10      29.92S
YANKTON        CLOUDY    72  68  88 E6        29.91F
$$

ABBREVIATIONS USED IN REMARKS
   TC - TEMPERATURE IN CELSIUS
  WCI - WIND CHILL INDEX
   HX - HEAT INDEX
  VSB - VISIBILITY



USA.gov is the U.S. government's official web portal to all federal, state and local government web resources and services.